Lid_Strength_Index
15 15 15 15 16 15 15 16 15 15 15 15 15 15 15 14 14 14 13 13 13 12 12 12 11 11 11 11 11 11 11 10
14 15 15 15 16 16 16 16 16 16 16 15 15 15 15 15 14 14 13 13 13 12 12 12 13 12 13 12 12 12 11 11
14 14 15 16 16 16 17 16 16 16 15 15 15 15 15 15 14 14 14 13 13 12 12 13 13 13 13 14 13 13 12 12
14 15 15 16 16 17 17 16 16 15 16 16 16 16 16 15 15 14 14 14 14 13 14 14 13 14 14 14 13 13 13 13
14 14 15 16 16 17 17 16 16 16 16 16 16 16 16 15 15 15 15 15 15 14 14 14 14 14 14 14 14 14 14 14
12 14 15 16 16 17 17 17 17 17 17 17 16 16 16 15 15 15 14 15 16 15 15 14 14 13 14 15 15 15 15 15
11 13 14 15 16 17 17 17 17 18 17 17 16 16 16 16 16 15 15 15 16 16 16 16 14 13 13 14 15 16 16 15
11 12 13 15 16 17 17 17 17 17 17 16 16 16 16 16 15 16 16 16 17 17 17 17 15 13 13 14 15 16 16 15
10 13 16 16 17 17 17 17 17 18 17 17 16 16 16 16 16 16 16 16 17 17 17 17 15 13 13 15 16 15 16 15
13 16 17 18 18 18 18 18 18 18 17 17 17 17 17 17 18 16 16 16 17 17 17 17 17 14 14 15 15 15 17 16
18 18 19 19 18 18 18 18 18 18 18 17 17 17 18 17 17 17 16 17 17 17 17 17 17 14 14 15 16 17 18 17
20 20 20 19 18 19 19 19 18 18 18 18 18 18 18 18 17 17 17 17 17 18 18 18 17 16 14 14 16 17 19 18
20 20 20 18 18 19 20 19 18 19 19 19 19 18 18 18 18 18 18 19 20 20 20 19 18 16 15 15 15 15 20 19
20 20 19 19 17 20 21 20 20 20 20 20 19 19 19 19 20 21 21 21 20 20 21 21 19 18 16 15 15 15 18 19
20 21 20 19 19 20 20 20 20 21 21 20 21 20 20 19 20 22 22 21 21 21 23 23 21 19 18 17 19 17 20 22
22 21 22 22 22 21 21 20 21 21 21 21 21 21 22 21 21 21 21 21 25 26 24 27 26 21 16 17 20 23 19 29
21 23 23 23 24 23 22 21 21 21 21 22 22 22 22 23 23 18 18 17 17 16 20 23 17 15 16 15 17 17 19 34
23 23 24 25 25 25 24 22 22 23 23 23 23 25 26 27 27 29 25 18 18 18 18 17 17 16 16 16 19 19 24 38
24 24 25 26 26 27 26 25 25 26 26 27 29 29 30 30 32 33 32 32 32 24 20 19 17 17 17 18 24 35 33 40
24 25 26 27 29 31 31 29 31 30 31 30 32 34 33 33 33 33 34 34 35 35 26 27 19 18 20 21 36 37 38 39